Погода в Отаре

Погода в Отаре : погода сейчас, прогноз погоды и архив. Всё, что Вы хотите узнать о погоде в Отаре!

Поиск расширенной информации на нашем сайте:

Другие новости

Новости СМИ2

Главная страница сайта

Новости сайта

02.10.2013

Напоминаем, что на нашем новом сайте вы можете получить высокодетализированные прогнозы погоды по пунктам России, СНГ и мира (включающие важные для авиации метеовеличины, такие как направление и скорость ветра, видимость, явления погоды, количество и форма облачности, нижняя и верхняя граница облачности), а также ознакомиться с разнообразными материалами по авиационной метеорологии и подборкой полезных ссылок на эту тему.

Сайт Метеоцентр.Азия посвящён разработке технологий оптимизации авиаметеорологического обслуживания, включая проектирование и перспективное создание нескольких автоматизированных авиаметеорологических систем:
- система выпуска высокодетальных прогностических карт явлений погоды для нижнего воздушного пространства по России и ближнему зарубежью;
- система верификации прогнозов TAF (выпускаемых синоптиками официальных АМСГ РФ и ближнего зарубежья) и AUTOTAF (выпускаемых сайтом Метеоцентр.Азия) - выявление ошибок, онлайн-сопоставление с фактической погодой METAR, автоматическое внесение коррективов в прогнозы при резком отклонении фактической погоды от прогноза, подсчёт оправдываемости прогнозов по элементам и в целом;
- система обработки, анализа и отображения авиаметеорологической информации для применения провайдерами метеорологической информации.


Погода в Отаре - сегодня

Время (UTC), дата Ветер
(°,м/с) 
Видим.   Явления Облачность Т
(°С)
Тd
(°С)
f(%) Тe
(°С)
Pmin
(гПа)
dP
(гПа)
Po
(мм)
O2
(г/м3)
Тmin Tmax R s Состояние
почвы
21 21.05.17 тихо ()   н/о    ясно 
+10.4 +5.3 71 +10  1012.7  -0.8  695  269           
00 22.05.17 тихо ()   20000 м    ясно 
+8.2 -5.9 36 +8  1010.7  -2.2  694  272           
03 22.05.17 тихо ()   20000 м    3/0 верхняя 
[Ci fib]
+16.6 +7.8 56 +17  1008.4  -0.3  693  262           
06 22.05.17 070 (В) 20000 м    ясно 
+24 +8.5 37 +25  1005.3  -0.6  693  255  +8         
09 22.05.17 070 (В) 20000 м    ясно 
+26.2 +9.8 36 +29  1004.6  693  253           
12 22.05.17 070 (В) 20000 м    ясно 
+27.2 +10.3 35 +30  1002.6  -1.5  692  252           
15 22.05.17 тихо ()   20000 м    ясно 
+20 +12.7 63 +27  1004.8  0.1  692  257    +28       
18 22.05.17 тихо ()   н/о    ясно 
+16 +12 77 +22  1006.6  0.6  692  261    +28       
21 22.05.17 тихо ()   н/о    ясно 
+12.4 +10.6 89 +16  1007.7  0.2  693  265           
00 23.05.17 тихо () {10}  20000 м    ясно 
+14.2 +11 81 +18  1008.4  0.9  693  263           
03 23.05.17 230 (ЮЗ) 20000 м    6/0 верхняя 
[Ci fib]
+25.6 +15.2 53 +37  1006.7  1.6  694  253           
06 23.05.17 250 (З) 20000 м    3/1 1000 м верхняя 
[Cu med, cong|Ci fib]
+31 +8.5 25 +32  1005.7  0.4  695  250  +12.2         
09 23.05.17 290 (З) 20000 м    8/3 1000 м средняя, верхняя 
[Cu med, cong|Ac trans|Ci sp]
+29.9 +11 31 +34  1006.9  0.9  695  250           
12 23.05.17 340 (С) 20000 м    9/4 600 м кучево-дожд., средняя, верхняя 
[Cb cap|Ac cast|Ci sp]
+25.6 +13.5 47 +34  1011.1  2.8  698  254           
15 23.05.17 250 (З) 20000 м  в посл. час гроза{ливн. осадки}  8/8 600 м кучево-дожд. 
[Cb cap]
+18.4 +13.4 73 +27  1015.7  2.3  699  261    +32.5  0.3     
18 23.05.17 160 (Ю) н/о    10/10 600 м кучево-дожд. 
[Cb cap]
+17.2 +12.7 75 +25  1016.8  0.7  700  263    +32.5  0.3     
21 23.05.17 тихо ()   н/о    4/4 1000 м 
[Sc]
+15.3 +13.3 88 +23  1016.3  -0.9  699  264           
00 24.05.17 тихо ()   20000 м    3/1 1000 м верхняя 
[Sc diur, vesp|Ci fib]
+12.3 +11 92 +16  1016.9  -0.4  699  267           
03 24.05.17 тихо ()   20000 м    3/0 верхняя 
[Ci fib]
+19.6 +14 70 +28  1016  1.3  700  260      0.4     
09 24.05.17 090 (В) 20000 м    3/3 1000 м 
[Cu med, cong]
+28 +11.3 35 +33  1010.4  -1.5  697  253           
12 24.05.17 070 (В) 20000 м    3/1 1000 м верхняя 
[Cu hum|Ci fib]
+28.2 +9.5 31 +30  1009.4  -1  697  253           
15 24.05.17 050 (СВ) 20000 м    6/3 1000 м средняя 
[As trans]
+22.1 +15.6 67 +34  1010.8  -0.1  697  256    +29.2       
18 24.05.17 тихо ()   н/о    ясно 
+18.4 +14.2 77 +28  1012.9  697  260    +29.2       
21 24.05.17 250 (З) н/о    ясно 
+16.3 +13.2 82 +26  1013.2  -0.4  697  262           
00 25.05.17 тихо ()   20000 м    6/3 2000 м средняя, верхняя 
[Ac und|Ci fib]
+13.7 +12 89 +19  1012.8  -1.1  696  265           
Время (UTC), дата Ветер
(°,м/с) 
Видим.   Явления Облачность Т
(°С)
Тd
(°С)
f(%) Тe
(°С)
Pmin
(гПа)
dP
(гПа)
Po
(мм)
O2
(г/м3)
Тmin Tmax R s Состояние
почвы

Для получения пояснительной информации подведите курсор к названию столбца.

ПОГОДА в Отаре - архив

Всё, что Вы хотите узнать о погоде в Отаре - удобно и подробно!

Выберите нужную дату (начиная с 1 января 2015* года) и нажмите кнопку "Найти".
Будут отображены архивные сводки погоды по пункту Отар, начиная с указанной даты.


Отображать данные в формате CSV (для использования в таблицах Excel)


Внимание! Наш архив погоды предназначен исключительно для личного некоммерческого использования в познавательных целях. Если Вам необходимы официальные справки о состоянии погоды (для производственных, юридических, коммерческих и т.п. целей), обращайтесь в органы Росгидромета.

*Примечание: данная дата относится к архиву по метеостанциям СССР (Россия, СНГ, Балтия).
Архив по метеостанциям Зарубежной Европы и Азии (кроме Китая) хранится 10 дней, по другим регионам земного шара (Китай, Африка, Америка, Австралия, Океания) - 1 день.

Отар - район местоположения метеостанции


Название, широта, долгота, высота метеостанции:
Отар 43.5°ш. 75.2°д. 743 м над ур. моря [Казахстан]

Дополнительная информация

В oтличие oт бoльшинства пoгoдных сайтoв мы публикуем пoдрoбную метеoинфoрмацию в детальнoм прoфессиoнальнoм фoрмате.

Характеристики температуры и влажнoсти вoздуха измеряются на высoте 2 м в тени вдали oт зданий и деревьев.
Скoрoсть ветра измеряется на высoте 10 м (на урoвне рoста челoвека скoрoсть ветра ниже в 1.5-2 раза). Если метеoстанция нахoдится в гoрoде или в лесу, тo скoрoсть ветра занижена на 2-4 м/с пo сравнению с oткрытым местoм. Скoрoсть ветра над акватoриями крупных рек и oзёр, а также на вершинах хoлмoв на 2-5 м/с выше, чем в oбычных услoвиях.
Атмoсфернoе давление в разных тoчках местнoсти мoжет значительнo oтличаться oт давления на метеoстанции, в зависимoсти oт услoвий рельефа (при пoдъёме на 10 м давление пoнижается примернo на 1 мм рт.ст.).